When you browse on this site, cookies collect data to enhance your experience and personalize the content and advertising you see.
Visit our Privacy Policy to learn more. By continuing to use the site, you agree to this use of cookies and data.

Hourly Weather Wangqing

Today, 6 July, Monday

Time Temperature Precipitation Wind Pressure Humidity
00:00 +18°C° 0 mm 1 mps 725 mmHg 95%
01:00 +18°C° 0 mm 1 mps 725 mmHg 96%
02:00 +16°C° 0 mm 1 mps 725 mmHg 96%
03:00 +16°C° 0 mm 1 mps 725 mmHg 97%
04:00 +16°C° 0 mm 1 mps 726 mmHg 97%
05:00 +18°C° 0 mm 1 mps 726 mmHg 98%
06:00 +18°C° 0 mm 1 mps 726 mmHg 98%
07:00 +20°C° 0 mm 1 mps 726 mmHg 91%
08:00 +21°C° 0 mm 1 mps 726 mmHg 85%
09:00 +23°C° 0 mm 1 mps 726 mmHg 79%
10:00 +25°C° 0 mm 1 mps 726 mmHg 68%
11:00 +27°C° 0 mm 2 mps 726 mmHg 57%
12:00 +29°C° 0 mm 2 mps 726 mmHg 46%
13:00 +29°C° 0 mm 3 mps 726 mmHg 47%
14:00 +29°C° 0 mm 4 mps 726 mmHg 49%
15:00 +29°C° 0 mm 4 mps 725 mmHg 50%
16:00 +28°C° 0 mm 4 mps 725 mmHg 59%
17:00 +26°C° 0 mm 3 mps 725 mmHg 67%
18:00 +24°C° 0 mm 3 mps 726 mmHg 75%
19:00 +23°C° 0.3 mm 2 mps 726 mmHg 82%
20:00 +21°C° 0.3 mm 2 mps 726 mmHg 90%
21:00 +20°C° 0.3 mm 1 mps 726 mmHg 97%
22:00 +20°C° 0.3 mm 1 mps 726 mmHg 98%
23:00 +20°C° 0.3 mm 1 mps 726 mmHg 98%

Tomorrow, 7 July, Tuesday

Time Temperature Precipitation Wind Pressure Humidity
00:00 +20°C° 0.3 mm 1 mps 726 mmHg 99%
01:00 +20°C° 0.4 mm 1 mps 726 mmHg 99%
02:00 +20°C° 0.4 mm 1 mps 726 mmHg 99%
03:00 +20°C° 0.4 mm 1 mps 726 mmHg 99%
04:00 +20°C° 0.1 mm 1 mps 726 mmHg 99%
05:00 +20°C° 0.1 mm 1 mps 726 mmHg 99%
06:00 +20°C° 0.1 mm 1 mps 726 mmHg 99%
07:00 +20°C° 0.3 mm 1 mps 726 mmHg 99%
08:00 +20°C° 0.3 mm 1 mps 726 mmHg 99%
09:00 +20°C° 0.3 mm 1 mps 726 mmHg 98%
10:00 +21°C° 0.5 mm 1 mps 726 mmHg 98%
11:00 +21°C° 0.5 mm 1 mps 726 mmHg 97%
12:00 +22°C° 0.5 mm 1 mps 726 mmHg 96%
13:00 +22°C° 1 mm 1 mps 726 mmHg 94%
14:00 +23°C° 1 mm 1 mps 726 mmHg 93%
15:00 +24°C° 1 mm 1 mps 726 mmHg 91%
16:00 +24°C° 0.6 mm 1 mps 726 mmHg 90%
17:00 +24°C° 0.6 mm 1 mps 726 mmHg 88%
18:00 +24°C° 0.6 mm 1 mps 726 mmHg 87%
19:00 +22°C° 0.1 mm 1 mps 726 mmHg 88%
20:00 +20°C° 0.1 mm 1 mps 727 mmHg 90%
21:00 +18°C° 0.1 mm 1 mps 727 mmHg 92%
22:00 +16°C° 0 mm 1 mps 727 mmHg 93%
23:00 +16°C° 0 mm 1 mps 727 mmHg 93%

Day after tomorrow, 8 July, Wednesday

Time Temperature Precipitation Wind Pressure Humidity
00:00 +15°C° 0 mm 1 mps 727 mmHg 94%
01:00 +14°C° 0 mm 1 mps 727 mmHg 95%
02:00 +14°C° 0 mm 1 mps 727 mmHg 95%
03:00 +13°C° 0 mm 1 mps 727 mmHg 95%
04:00 +14°C° 0 mm 1 mps 727 mmHg 95%
05:00 +14°C° 0 mm 1 mps 728 mmHg 95%
06:00 +14°C° 0 mm 1 mps 728 mmHg 95%
07:00 +18°C° 0 mm 1 mps 728 mmHg 83%
08:00 +19°C° 0 mm 2 mps 728 mmHg 70%
09:00 +22°C° 0 mm 3 mps 728 mmHg 58%
10:00 +24°C° 0 mm 3 mps 728 mmHg 53%
11:00 +25°C° 0 mm 4 mps 728 mmHg 48%
12:00 +27°C° 0 mm 4 mps 728 mmHg 43%
13:00 +27°C° 0 mm 3 mps 728 mmHg 44%
14:00 +27°C° 0 mm 3 mps 727 mmHg 46%
15:00 +27°C° 0 mm 3 mps 727 mmHg 48%
16:00 +26°C° 0 mm 2 mps 727 mmHg 50%
17:00 +25°C° 0 mm 2 mps 727 mmHg 53%
18:00 +24°C° 0 mm 1 mps 727 mmHg 56%
19:00 +22°C° 0 mm 1 mps 727 mmHg 63%
20:00 +20°C° 0 mm 1 mps 728 mmHg 69%
21:00 +18°C° 0 mm 1 mps 728 mmHg 76%
22:00 +18°C° 0 mm 1 mps 728 mmHg 76%
23:00 +15°C° 0 mm 0 mps 728 mmHg 76%

9 July, Thursday

Time Temperature Precipitation Wind Pressure Humidity
00:00 +15°C° 0 mm 0 mps 728 mmHg 76%
01:00 +15°C° 0 mm 0 mps 728 mmHg 74%
02:00 +16°C° 0 mm 0 mps 728 mmHg 72%
03:00 +16°C° 0 mm 0 mps 728 mmHg 70%
04:00 +16°C° 0 mm 0 mps 729 mmHg 73%
05:00 +16°C° 0 mm 0 mps 729 mmHg 77%
06:00 +15°C° 0 mm 0 mps 729 mmHg 81%
07:00 +18°C° 0 mm 0 mps 729 mmHg 71%
08:00 +21°C° 0 mm 0 mps 729 mmHg 61%
09:00 +26°C° 0 mm 1 mps 729 mmHg 52%
10:00 +28°C° 0 mm 1 mps 729 mmHg 46%
11:00 +29°C° 0 mm 1 mps 729 mmHg 40%
12:00 +31°C° 0 mm 1 mps 729 mmHg 34%
13:00 +31°C° 0 mm 1 mps 729 mmHg 33%
14:00 +31°C° 0 mm 1 mps 729 mmHg 33%
15:00 +32°C° 0 mm 1 mps 729 mmHg 32%
16:00 +30°C° 0 mm 2 mps 729 mmHg 39%
17:00 +29°C° 0 mm 2 mps 729 mmHg 46%
18:00 +28°C° 0 mm 2 mps 729 mmHg 53%
19:00 +25°C° 0 mm 2 mps 729 mmHg 62%
20:00 +23°C° 0 mm 1 mps 729 mmHg 71%
21:00 +20°C° 0 mm 1 mps 729 mmHg 80%
22:00 +20°C° 0 mm 1 mps 730 mmHg 80%
23:00 +19°C° 0 mm 1 mps 730 mmHg 80%

10 July, Friday

Time Temperature Precipitation Wind Pressure Humidity
00:00 +19°C° 0 mm 1 mps 730 mmHg 80%
01:00 +18°C° 0 mm 1 mps 730 mmHg 83%
02:00 +18°C° 0 mm 1 mps 730 mmHg 87%
03:00 +16°C° 0 mm 1 mps 730 mmHg 90%
04:00 +16°C° 0 mm 0 mps 730 mmHg 89%
05:00 +16°C° 0 mm 0 mps 731 mmHg 89%
06:00 +17°C° 0 mm 0 mps 731 mmHg 89%
07:00 +18°C° 0 mm 0 mps 731 mmHg 87%
08:00 +21°C° 0 mm 1 mps 731 mmHg 85%
09:00 +22°C° 0 mm 1 mps 732 mmHg 83%
10:00 +22°C° 0.1 mm 1 mps 732 mmHg 83%
11:00 +23°C° 0.1 mm 2 mps 731 mmHg 83%
12:00 +23°C° 0.1 mm 2 mps 731 mmHg 82%
13:00 +24°C° 0 mm 2 mps 731 mmHg 78%
14:00 +25°C° 0 mm 3 mps 731 mmHg 74%
15:00 +26°C° 0 mm 4 mps 731 mmHg 70%
16:00 +25°C° 0 mm 4 mps 731 mmHg 74%
17:00 +25°C° 0 mm 4 mps 731 mmHg 77%
18:00 +23°C° 0 mm 4 mps 731 mmHg 81%
19:00 +22°C° 0 mm 3 mps 731 mmHg 85%
20:00 +21°C° 0 mm 2 mps 732 mmHg 90%
21:00 +21°C° 0 mm 1 mps 732 mmHg 94%
22:00 +21°C° 0 mm 1 mps 732 mmHg 95%
23:00 +21°C° 0 mm 1 mps 732 mmHg 96%

11 July, Saturday

Time Temperature Precipitation Wind Pressure Humidity
00:00 +21°C° 0 mm 1 mps 732 mmHg 96%
01:00 +21°C° 0 mm 1 mps 732 mmHg 97%
02:00 +20°C° 0 mm 1 mps 732 mmHg 97%
03:00 +20°C° 0 mm 1 mps 732 mmHg 97%
04:00 +20°C° 0.2 mm 1 mps 732 mmHg 98%
05:00 +21°C° 0.2 mm 1 mps 733 mmHg 98%
06:00 +21°C° 0.2 mm 1 mps 733 mmHg 98%
07:00 +21°C° 0 mm 1 mps 733 mmHg 96%
08:00 +20°C° 0 mm 2 mps 733 mmHg 95%
09:00 +21°C° 0 mm 2 mps 733 mmHg 93%
10:00 +21°C° 0 mm 2 mps 733 mmHg 89%
11:00 +22°C° 0 mm 3 mps 732 mmHg 84%
12:00 +24°C° 0 mm 3 mps 732 mmHg 79%
13:00 +24°C° 0 mm 3 mps 732 mmHg 77%
14:00 +23°C° 0 mm 4 mps 732 mmHg 75%
15:00 +23°C° 0 mm 4 mps 732 mmHg 73%
16:00 +23°C° 0 mm 4 mps 732 mmHg 75%
17:00 +22°C° 0 mm 3 mps 731 mmHg 77%
18:00 +21°C° 0 mm 3 mps 731 mmHg 79%
19:00 +20°C° 0 mm 3 mps 731 mmHg 83%
20:00 +19°C° 0 mm 2 mps 732 mmHg 87%
21:00 +18°C° 0 mm 2 mps 732 mmHg 91%
22:00 +19°C° 0 mm 1 mps 732 mmHg 91%
23:00 +18°C° 0 mm 1 mps 732 mmHg 91%
Show more